Wind_Speed
39 37 36 36 36 35 33 32 31 31 31 31 31 30 29 28 26 26 26 25 25 22 20 19 20 20 19 18 18 17 16 16 15 15 16 16 16 16 16 15 15 15
42 40 38 37 36 35 34 32 31 31 31 31 31 31 30 29 27 26 26 25 24 22 20 19 20 20 20 19 19 18 17 16 16 16 16 16 16 17 17 16 16 16
43 42 41 39 37 35 34 33 32 31 31 31 31 31 31 30 28 27 26 25 24 22 20 20 20 21 20 20 20 19 18 16 15 16 16 16 15 16 17 16 15 16
45 44 43 41 38 35 34 34 33 32 32 32 32 32 32 31 30 29 28 26 24 22 21 21 20 21 21 21 21 20 19 17 15 16 17 17 16 16 16 16 15 16
45 44 43 42 39 37 36 36 35 33 33 33 33 33 32 31 30 30 29 28 25 24 23 22 21 21 21 22 22 22 21 19 17 17 19 18 17 17 17 16 16 17
47 46 45 43 41 39 38 37 36 34 33 33 33 34 33 33 32 31 30 29 27 25 24 23 22 22 22 23 23 23 22 21 19 19 20 19 18 18 18 17 17 17
48 47 46 45 43 41 40 38 37 35 34 33 34 34 34 34 33 32 31 30 29 27 26 24 24 23 24 24 24 24 23 22 22 21 21 20 20 20 19 19 19 18
49 48 47 46 44 43 42 40 38 37 35 35 35 35 35 34 33 32 32 31 30 28 27 26 25 24 25 26 26 26 25 24 24 23 22 22 22 22 21 20 20 20
50 49 48 47 46 45 43 41 40 38 37 36 35 35 35 35 34 33 33 32 31 30 29 28 27 26 26 27 28 28 27 26 25 24 24 24 23 23 22 22 21 22
52 50 50 49 48 46 44 42 41 39 38 38 37 35 35 36 35 35 34 34 33 33 32 30 29 28 28 29 29 29 29 28 26 25 25 25 24 24 23 23 23 22
53 52 51 51 49 48 46 44 42 41 39 39 38 37 36 36 36 36 36 35 35 34 34 33 31 30 29 30 30 30 30 29 28 27 26 26 26 25 25 24 24 23
54 53 52 52 50 48 47 45 43 42 40 40 39 38 37 37 37 38 37 37 36 35 35 34 33 32 31 31 30 30 30 30 30 29 28 27 26 26 26 25 25 24
54 54 53 51 50 48 46 45 43 42 41 40 40 39 39 38 38 39 38 37 37 36 36 35 35 34 33 32 31 30 29 30 31 31 30 29 27 27 27 27 26 25
54 53 52 51 50 48 46 45 43 42 41 40 40 40 40 40 39 39 39 38 38 38 38 37 36 36 35 34 33 31 30 30 30 32 32 31 29 28 28 28 27 25
54 54 53 52 50 49 47 46 44 42 41 40 40 40 40 40 40 39 39 39 40 40 39 39 39 38 36 35 34 32 31 31 30 31 31 31 30 29 28 28 27 26
54 54 53 53 52 50 48 47 45 44 42 41 40 40 40 40 40 40 40 41 41 41 41 41 41 39 37 35 34 32 32 31 30 30 30 31 31 31 29 28 26 26
54 54 54 53 52 51 49 48 46 45 44 42 41 40 40 41 41 41 42 42 42 42 42 42 41 39 37 36 34 33 32 32 31 30 30 31 31 31 30 28 27 26
54 54 54 53 53 51 50 48 47 46 45 44 43 42 41 41 42 43 43 42 43 43 43 43 41 38 37 37 35 33 32 32 31 31 30 30 30 30 29 28 27 27
54 53 53 53 53 52 50 49 48 47 46 45 45 43 42 43 43 43 43 43 44 44 44 43 41 38 38 38 36 34 32 31 31 31 30 29 29 29 28 28 27 27
53 53 53 53 52 51 51 50 50 49 47 46 46 45 45 45 44 44 44 44 44 44 45 44 41 39 39 39 37 34 32 31 31 30 30 29 28 28 27 27 26 26
53 53 53 53 52 51 51 51 51 50 49 48 47 47 47 46 45 44 45 45 45 44 45 44 42 40 40 40 38 35 32 32 31 30 29 28 27 26 25 25 25 25
53 53 53 52 51 51 51 51 51 51 50 49 48 48 48 47 47 46 46 45 45 45 45 45 43 42 41 41 39 35 33 32 31 30 29 27 25 24 23 23 24 25
53 53 53 52 51 51 51 51 51 51 50 49 49 49 49 49 49 48 47 46 46 46 46 45 44 43 42 41 39 36 34 33 31 29 28 26 23 23 23 23 24 24
52 52 52 51 51 52 51 51 50 51 50 49 49 49 49 49 49 49 48 48 47 47 46 45 44 43 42 41 39 37 35 32 29 28 27 25 23 23 23 23 23 22
50 50 50 51 51 51 51 50 49 50 49 49 49 49 48 48 49 49 49 49 48 47 46 46 45 44 43 42 40 37 34 31 28 27 26 25 24 23 22 22 22 22
48 49 49 50 50 50 49 49 48 48 48 48 48 49 49 48 48 49 50 50 49 48 48 47 46 46 45 43 40 37 34 30 29 28 26 24 23 22 21 21 22 22
Wind_Direction
231 232 233 234 235 235 236 235 236 237 237 236 236 237 239 241 242 241 239 238 240 243 246 246 243 241 241 243 243 242 240 237 234 233 236 239 240 240 239 239 242 245
230 232 233 234 235 235 235 235 234 236 237 237 237 238 240 242 242 241 239 237 239 242 244 243 241 239 239 241 242 242 240 237 233 231 235 238 240 243 243 243 244 245
231 232 232 233 235 235 235 235 234 234 235 237 237 237 239 240 241 241 238 236 238 242 242 241 240 240 239 238 241 242 241 239 236 234 236 237 240 245 246 245 246 248
232 232 233 234 235 236 236 236 236 234 233 235 236 236 237 239 240 240 237 235 238 241 241 240 240 240 239 238 239 241 242 241 237 236 238 238 241 245 248 248 250 250
234 234 234 235 235 235 236 237 237 235 234 234 234 234 236 238 239 239 237 236 238 240 241 240 241 240 239 239 240 240 241 241 237 237 239 240 241 245 247 249 251 253
234 235 234 235 235 235 236 237 237 236 235 234 233 234 235 237 238 239 239 238 238 240 242 241 241 241 239 239 240 242 242 242 240 239 240 242 243 244 245 248 250 253
235 235 235 236 236 236 236 237 238 237 236 235 234 235 236 237 238 238 238 239 239 240 242 243 242 242 240 239 240 241 242 242 243 242 241 243 244 244 245 246 249 252
235 236 236 236 236 237 237 237 238 238 237 237 235 234 235 237 238 237 237 238 239 239 241 243 243 242 241 241 240 240 241 242 244 244 244 242 243 244 244 245 248 251
235 236 237 237 237 237 237 237 238 239 239 239 237 235 235 236 238 238 237 238 239 239 240 242 242 241 240 241 241 241 241 242 244 246 247 245 245 245 246 246 247 250
235 236 236 237 237 237 238 238 239 239 240 240 240 238 236 236 238 238 238 238 239 240 241 242 242 241 240 241 242 242 243 243 245 247 248 248 248 249 250 251 251 252
235 235 236 236 237 237 238 238 239 239 241 241 242 240 238 236 237 239 239 238 239 240 241 242 242 241 241 242 243 244 245 245 246 247 249 250 251 252 253 255 256 257
234 235 236 237 237 238 238 238 239 239 241 242 242 242 240 238 237 238 239 239 239 240 241 242 242 242 242 243 245 246 247 247 247 248 250 251 251 252 254 256 259 261
235 236 237 237 238 238 239 239 239 239 240 241 242 243 242 239 237 237 239 239 240 240 241 241 242 242 243 243 244 246 247 248 249 249 251 252 253 253 253 255 258 261
235 236 236 236 237 238 239 239 239 239 240 241 242 242 242 240 237 236 238 239 240 240 241 242 242 242 242 242 242 244 246 248 250 250 251 253 255 255 255 256 257 260
235 235 234 235 236 236 237 238 238 238 238 240 241 242 242 240 238 237 237 238 240 240 241 242 242 242 242 241 241 242 245 248 250 252 253 254 256 257 257 258 258 261
234 233 233 233 234 235 236 236 236 236 237 238 239 241 241 240 239 237 236 237 238 240 241 241 242 242 242 242 242 242 244 247 250 252 253 253 255 257 258 259 259 262
232 232 232 233 233 234 235 235 235 236 236 236 238 239 240 240 239 237 235 236 237 239 240 241 242 242 243 244 243 243 244 246 249 251 252 252 254 256 258 260 261 263
232 232 231 232 233 233 233 234 235 235 236 236 236 237 238 239 238 236 234 235 237 239 240 241 242 242 243 245 245 244 245 247 249 251 252 253 254 255 257 259 260 263
231 231 231 232 233 232 232 233 233 234 235 236 236 236 237 238 237 236 235 235 237 238 240 241 242 242 244 245 245 245 246 248 250 251 252 253 255 256 257 259 259 261
230 231 232 232 232 231 231 232 233 234 234 235 236 236 237 237 237 237 237 236 236 238 240 242 242 242 244 245 246 246 246 248 250 251 253 253 255 255 256 257 258 259
230 231 231 231 230 230 230 231 232 234 234 234 235 236 237 238 238 238 238 237 237 238 240 242 242 243 244 245 246 246 246 248 249 250 251 252 252 253 254 254 255 257
230 231 230 229 229 228 229 231 232 233 234 234 235 236 238 239 239 240 240 239 239 239 241 242 242 242 244 245 246 246 246 246 247 248 249 250 249 249 249 250 252 255
231 230 230 229 229 229 230 231 233 234 234 234 235 236 237 238 240 240 241 241 241 241 241 241 242 242 243 244 245 244 244 244 245 245 246 246 245 244 246 248 251 255
232 230 230 230 231 231 232 233 234 234 234 235 235 236 238 239 240 241 241 241 241 241 241 242 242 243 243 244 244 243 242 243 243 243 243 242 240 241 245 249 251 253
233 231 231 233 234 235 235 234 235 235 235 235 236 238 239 240 240 241 242 242 242 242 242 243 243 243 243 244 243 242 242 241 241 240 239 238 238 240 244 248 251 249
234 234 234 236 237 237 236 236 235 235 234 235 236 238 238 239 241 242 242 243 244 244 244 243 243 244 244 244 243 242 241 240 239 238 236 233 235 239 241 243 244 243
Height
1518 1520 1522 1524 1526 1528 1531 1533 1535 1538 1539 1541 1543 1545 1547 1549 1551 1552 1554 1555 1557 1558 1559 1561 1562 1563 1564 1565 1566 1566 1567 1568 1569 1570 1570 1571 1572 1573 1574 1574 1575 1576
1514 1517 1519 1521 1523 1526 1528 1530 1532 1535 1537 1539 1540 1543 1545 1546 1548 1550 1552 1553 1555 1556 1558 1559 1560 1561 1562 1563 1564 1565 1566 1566 1567 1568 1569 1569 1570 1571 1572 1573 1574 1575
1510 1513 1515 1518 1520 1522 1524 1526 1529 1531 1534 1536 1538 1540 1542 1544 1546 1548 1550 1551 1553 1555 1556 1557 1559 1560 1561 1562 1562 1563 1564 1565 1566 1567 1567 1568 1569 1570 1571 1572 1572 1573
1506 1509 1511 1514 1517 1519 1521 1523 1525 1528 1530 1533 1535 1538 1539 1541 1544 1545 1547 1549 1551 1553 1554 1556 1557 1558 1559 1560 1560 1561 1562 1563 1564 1565 1566 1566 1567 1568 1569 1570 1570 1571
1502 1505 1507 1510 1513 1516 1518 1519 1522 1524 1527 1529 1532 1535 1537 1539 1541 1543 1545 1547 1549 1550 1552 1554 1555 1556 1557 1558 1558 1559 1560 1561 1562 1563 1563 1564 1566 1567 1568 1569 1569 1570
1499 1501 1504 1507 1510 1513 1514 1515 1518 1521 1523 1526 1529 1532 1534 1536 1538 1540 1543 1544 1546 1548 1549 1551 1553 1554 1555 1556 1556 1557 1558 1559 1560 1561 1562 1563 1564 1565 1566 1566 1567 1568
1495 1498 1501 1504 1506 1509 1511 1512 1515 1517 1520 1523 1526 1528 1531 1533 1535 1538 1540 1542 1544 1545 1546 1548 1550 1551 1553 1553 1554 1555 1556 1557 1558 1559 1560 1561 1562 1562 1563 1564 1565 1566
1491 1494 1497 1500 1503 1505 1507 1509 1512 1514 1517 1520 1522 1525 1528 1530 1533 1535 1537 1539 1541 1542 1543 1545 1547 1548 1550 1550 1551 1552 1553 1554 1555 1556 1557 1558 1559 1560 1561 1562 1563 1563
1488 1490 1493 1496 1499 1501 1503 1506 1508 1511 1514 1516 1519 1522 1525 1527 1529 1532 1534 1536 1537 1539 1540 1542 1543 1545 1546 1547 1548 1549 1550 1552 1553 1554 1555 1556 1556 1557 1559 1560 1561 1561
1483 1486 1489 1491 1494 1496 1499 1503 1506 1509 1511 1513 1516 1519 1521 1524 1526 1528 1530 1532 1534 1535 1536 1538 1539 1541 1542 1543 1544 1546 1547 1549 1550 1551 1552 1553 1554 1555 1557 1558 1559 1560
1479 1482 1484 1486 1489 1492 1496 1500 1503 1506 1508 1510 1513 1515 1518 1520 1522 1524 1526 1528 1529 1531 1532 1533 1535 1536 1538 1539 1541 1543 1544 1546 1547 1549 1550 1551 1552 1553 1554 1555 1556 1557
1474 1476 1478 1481 1484 1488 1492 1496 1499 1502 1504 1506 1509 1511 1514 1516 1518 1520 1522 1524 1526 1527 1528 1529 1530 1532 1534 1535 1537 1539 1541 1543 1544 1546 1547 1548 1550 1550 1551 1553 1553 1554
1469 1471 1473 1477 1480 1484 1488 1492 1495 1498 1500 1502 1505 1507 1510 1512 1513 1516 1518 1520 1522 1523 1524 1525 1526 1528 1530 1532 1534 1536 1537 1539 1541 1542 1544 1545 1547 1547 1549 1549 1550 1551
1463 1466 1469 1473 1476 1480 1484 1487 1490 1493 1495 1498 1501 1502 1504 1507 1509 1511 1513 1515 1517 1518 1519 1521 1522 1524 1525 1527 1530 1532 1534 1535 1537 1539 1540 1542 1543 1544 1545 1546 1547 1548
1458 1462 1466 1469 1473 1476 1479 1482 1485 1488 1491 1494 1496 1497 1500 1502 1504 1506 1508 1510 1511 1513 1514 1516 1517 1519 1521 1523 1525 1527 1529 1531 1533 1535 1536 1538 1539 1541 1542 1543 1544 1545
1455 1458 1461 1465 1468 1471 1474 1477 1481 1484 1487 1489 1490 1492 1495 1497 1499 1501 1503 1504 1506 1507 1509 1511 1512 1514 1516 1518 1521 1523 1525 1527 1529 1531 1533 1534 1536 1537 1538 1539 1541 1542
1450 1453 1457 1460 1463 1466 1470 1473 1476 1479 1482 1484 1485 1488 1490 1492 1494 1495 1497 1499 1500 1502 1504 1505 1507 1509 1511 1513 1516 1519 1521 1523 1524 1527 1528 1530 1532 1533 1534 1536 1537 1538
1445 1448 1451 1454 1457 1461 1465 1468 1472 1474 1476 1478 1480 1482 1485 1487 1488 1489 1491 1493 1495 1497 1498 1500 1502 1505 1507 1509 1511 1514 1516 1518 1520 1522 1524 1526 1527 1529 1530 1532 1533 1534
1440 1443 1446 1449 1452 1456 1460 1464 1466 1468 1470 1473 1475 1478 1480 1481 1482 1484 1486 1488 1490 1491 1493 1494 1497 1500 1502 1504 1506 1509 1512 1514 1515 1517 1519 1521 1523 1524 1526 1527 1528 1530
1436 1438 1440 1443 1447 1451 1455 1458 1460 1462 1465 1468 1470 1472 1474 1475 1477 1479 1481 1483 1485 1486 1488 1490 1493 1495 1497 1499 1501 1504 1507 1509 1511 1513 1514 1516 1518 1520 1521 1523 1524 1525
1431 1433 1436 1439 1443 1446 1449 1452 1455 1457 1460 1462 1465 1466 1468 1470 1472 1474 1476 1478 1479 1481 1483 1485 1487 1490 1492 1494 1497 1500 1503 1505 1506 1508 1510 1512 1514 1515 1516 1518 1519 1520
1426 1429 1432 1435 1439 1442 1444 1446 1449 1451 1454 1457 1459 1461 1463 1466 1468 1469 1471 1473 1475 1477 1478 1480 1482 1485 1487 1489 1492 1495 1498 1500 1502 1503 1505 1507 1509 1510 1512 1513 1515 1516
1421 1425 1428 1431 1434 1436 1438 1441 1443 1446 1449 1452 1454 1456 1458 1460 1462 1464 1466 1468 1470 1472 1473 1474 1477 1479 1481 1484 1487 1490 1493 1495 1497 1499 1500 1502 1504 1506 1507 1509 1510 1512
1417 1420 1424 1427 1429 1430 1432 1435 1438 1441 1444 1447 1450 1452 1453 1456 1458 1460 1462 1463 1465 1466 1467 1470 1472 1474 1476 1479 1482 1485 1488 1490 1492 1494 1496 1498 1500 1502 1504 1505 1507 1509
1413 1417 1420 1422 1424 1425 1428 1431 1433 1436 1440 1443 1446 1447 1449 1451 1454 1455 1457 1458 1459 1461 1463 1465 1467 1469 1471 1474 1477 1481 1484 1486 1489 1490 1492 1494 1496 1498 1500 1502 1504 1505
1411 1413 1416 1418 1419 1421 1425 1428 1430 1434 1437 1439 1442 1443 1445 1448 1449 1450 1452 1453 1455 1457 1459 1461 1462 1464 1466 1469 1472 1476 1479 1482 1485 1486 1488 1490 1493 1495 1497 1499 1500 1502